Вернуться в каталог

STARLINK-4618

АктивенСвязьVLEO
NORAD 53735·PAYLOAD·🇺🇸 United States

Запущен Sep 5, 2022 с Cape Canaveral Space Force Station

Loading…

Ближайшие Пролёты (ближайшие 24 часа)

TLE

СвежийSource: CelesTrak SupGP

Эпоха: Sep 14, 2026, 20:31 UTC

1 53735C 22107AM  26257.85534722 -.00022452  00000+0 -66371-3 0  2572
2 53735  53.1576 119.8206 0001266  86.5138  47.9390 15.34384299    16

Отслеживайте STARLINK-4618 в реальном времени с AllMySat

Download on the App Store